Time,TemperatureF,DewpointF,PressureIn,WindDirection,WindDirectionDegrees,WindSpeedMPH,WindSpeedGustMPH,Humidity,HourlyPrecipIn,Conditions,Clouds,dailyrainin,SoftwareType,DateUTC
2013-08-19 00:01:00,67.5,66.0,30.15,SSW,202,0.0,0.0,95,0.00,SKC,,0.00,WeatherDisplay:10.37,2013-08-19 04:01:00,
2013-08-19 00:02:00,67.5,66.0,30.15,SSW,202,0.0,0.0,95,0.00,SKC,,0.00,WeatherDisplay:10.37,2013-08-19 04:02:00,
2013-08-19 00:04:00,67.5,66.0,30.14,SSW,202,0.0,0.0,95,0.00,SKC,,0.00,WeatherDisplay:10.37,2013-08-19 04:04:00,
2013-08-19 00:09:00,67.5,66.0,30.14,SSW,202,0.0,0.0,95,0.00,SKC,,0.00,WeatherDisplay:10.37,2013-08-19 04:09:00,
2013-08-19 00:10:00,67.4,65.9,30.14,SSW,202,0.0,0.0,95,0.00,SKC,SKC,0.00,WeatherDisplay:10.37,2013-08-19 04:10:00,
2013-08-19 00:15:00,67.3,65.8,30.14,SSW,202,0.0,0.0,95,0.00,SKC,,0.00,WeatherDisplay:10.37,2013-08-19 04:15:00,
2013-08-19 00:20:00,67.1,65.9,30.14,SSW,202,0.0,0.0,96,0.00,SKC,,0.00,WeatherDisplay:10.37,2013-08-19 04:20:00,
2013-08-19 00:25:00,66.9,65.7,30.14,SSW,202,0.0,0.0,96,0.00,SKC,,0.00,WeatherDisplay:10.37,2013-08-19 04:25:00,
2013-08-19 00:30:00,66.7,65.8,30.14,SSW,202,0.0,0.0,97,0.00,SKC,,0.00,WeatherDisplay:10.37,2013-08-19 04:30:00,
2013-08-19 00:35:00,66.7,65.8,30.14,SSW,202,0.0,0.0,97,0.00,SKC,,0.00,WeatherDisplay:10.37,2013-08-19 04:35:00,
2013-08-19 00:40:00,66.7,65.8,30.14,SSW,202,0.0,0.0,97,0.00,SKC,,0.00,WeatherDisplay:10.37,2013-08-19 04:40:00,
2013-08-19 00:45:00,66.7,65.8,30.14,SSW,202,0.0,0.0,97,0.00,SKC,,0.00,WeatherDisplay:10.37,2013-08-19 04:45:00,
2013-08-19 00:50:00,66.7,65.8,30.14,SSW,202,0.0,0.0,97,0.00,SKC,,0.00,WeatherDisplay:10.37,2013-08-19 04:50:00,
2013-08-19 00:55:00,66.7,65.8,30.14,SSW,202,0.0,0.0,97,0.00,SKC,,0.00,WeatherDisplay:10.37,2013-08-19 04:55:00,
2013-08-19 01:00:00,66.7,65.8,30.14,SSW,202,0.0,0.0,97,0.00,SKC,,0.00,WeatherDisplay:10.37,2013-08-19 05:00:00,
2013-08-19 01:05:00,66.6,66.0,30.14,SSW,202,0.0,0.0,98,0.00,SKC,,0.00,WeatherDisplay:10.37,2013-08-19 05:05:00,
2013-08-19 01:10:00,66.6,66.0,30.14,SSW,202,0.0,0.0,98,0.00,SKC,,0.00,WeatherDisplay:10.37,2013-08-19 05:10:00,
2013-08-19 01:15:00,66.6,66.0,30.14,SSW,202,0.0,0.0,98,0.00,SKC,,0.00,WeatherDisplay:10.37,2013-08-19 05:15:00,
2013-08-19 01:20:00,66.6,66.0,30.13,SSW,202,0.0,0.0,98,0.00,SKC,,0.00,WeatherDisplay:10.37,2013-08-19 05:20:00,
2013-08-19 01:25:00,66.6,66.0,30.13,SSW,202,0.0,0.0,98,0.00,SKC,,0.00,WeatherDisplay:10.37,2013-08-19 05:25:00,
2013-08-19 01:30:00,66.4,65.8,30.14,SSW,202,0.0,0.0,98,0.00,SKC,,0.00,WeatherDisplay:10.37,2013-08-19 05:30:00,
2013-08-19 01:35:00,66.4,65.8,30.14,SSW,202,0.0,0.0,98,0.00,SKC,,0.00,WeatherDisplay:10.37,2013-08-19 05:35:00,
2013-08-19 01:40:00,66.4,65.8,30.14,SSW,202,0.0,0.0,98,0.00,SKC,,0.00,WeatherDisplay:10.37,2013-08-19 05:40:00,
2013-08-19 01:45:00,66.4,65.8,30.13,SSW,202,0.0,0.0,98,0.00,SKC,,0.00,WeatherDisplay:10.37,2013-08-19 05:45:00,
2013-08-19 01:50:00,66.4,65.8,30.13,SSW,202,0.0,0.0,98,0.00,SKC,,0.00,WeatherDisplay:10.37,2013-08-19 05:50:00,
2013-08-19 01:55:00,66.4,65.8,30.13,SSW,202,0.0,0.0,98,0.00,SKC,,0.00,WeatherDisplay:10.37,2013-08-19 05:55:00,
2013-08-19 02:00:00,66.4,65.8,30.13,SSW,202,0.0,0.0,98,0.00,SKC,,0.00,WeatherDisplay:10.37,2013-08-19 06:00:00,
2013-08-19 02:05:00,66.4,65.8,30.14,SSW,202,0.0,0.0,98,0.00,SKC,,0.00,WeatherDisplay:10.37,2013-08-19 06:05:00,
2013-08-19 02:10:00,66.4,65.8,30.14,SSW,202,1.7,2.7,98,0.00,SKC,,0.00,WeatherDisplay:10.37,2013-08-19 06:10:00,
2013-08-19 02:15:00,66.4,65.8,30.14,SSW,202,0.0,0.0,98,0.00,SKC,,0.00,WeatherDisplay:10.37,2013-08-19 06:15:00,
2013-08-19 02:20:00,66.4,65.8,30.12,SSW,202,0.0,0.0,98,0.00,SKC,,0.00,WeatherDisplay:10.37,2013-08-19 06:20:00,
2013-08-19 02:25:00,66.4,65.8,30.12,SSW,202,0.0,0.0,98,0.00,SKC,,0.00,WeatherDisplay:10.37,2013-08-19 06:25:00,
2013-08-19 02:30:00,66.4,65.8,30.12,SSW,202,0.0,0.0,98,0.00,SKC,,0.00,WeatherDisplay:10.37,2013-08-19 06:30:00,
2013-08-19 02:35:00,66.4,65.8,30.12,SSW,202,0.0,0.0,98,0.00,SKC,,0.00,WeatherDisplay:10.37,2013-08-19 06:35:00,
2013-08-19 02:40:00,66.4,65.8,30.12,SSW,202,0.0,0.0,98,0.00,SKC,,0.00,WeatherDisplay:10.37,2013-08-19 06:40:00,
2013-08-19 02:45:00,66.4,65.8,30.12,SSW,202,0.0,0.0,98,0.00,SKC,,0.00,WeatherDisplay:10.37,2013-08-19 06:45:00,
2013-08-19 02:50:00,66.2,65.9,30.12,SSW,202,0.0,0.0,99,0.00,SKC,,0.00,WeatherDisplay:10.37,2013-08-19 06:50:00,
2013-08-19 02:55:00,66.2,65.9,30.12,SSW,202,0.0,0.0,99,0.00,SKC,,0.00,WeatherDisplay:10.37,2013-08-19 06:55:00,
2013-08-19 03:00:00,66.2,65.9,30.12,SSW,202,0.0,0.0,99,0.00,SKC,,0.00,WeatherDisplay:10.37,2013-08-19 07:00:00,
2013-08-19 03:05:00,66.2,65.9,30.11,SSW,202,0.0,2.3,99,0.00,SKC,,0.00,WeatherDisplay:10.37,2013-08-19 07:05:00,
2013-08-19 03:10:00,66.2,65.6,30.11,SSW,202,0.3,4.6,98,0.00,SKC,,0.00,WeatherDisplay:10.37,2013-08-19 07:10:00,
2013-08-19 03:15:00,66.2,65.6,30.11,SSW,202,2.7,3.5,98,0.00,SKC,,0.00,WeatherDisplay:10.37,2013-08-19 07:15:00,
2013-08-19 03:20:00,66.2,65.6,30.11,SSW,202,0.4,3.5,98,0.00,SKC,,0.00,WeatherDisplay:10.37,2013-08-19 07:20:00,
2013-08-19 03:25:00,66.2,65.6,30.11,SSW,202,0.2,3.5,98,0.00,SKC,,0.00,WeatherDisplay:10.37,2013-08-19 07:25:00,
2013-08-19 03:30:00,66.2,65.3,30.11,SSW,202,0.8,2.7,97,0.00,SKC,,0.00,WeatherDisplay:10.37,2013-08-19 07:30:00,
2013-08-19 03:35:00,66.0,64.8,30.11,SSW,202,3.1,3.6,96,0.00,SKC,,0.00,WeatherDisplay:10.37,2013-08-19 07:35:00,
2013-08-19 03:40:00,66.0,64.8,30.11,SSW,202,4.8,7.0,96,0.00,SKC,,0.00,WeatherDisplay:10.37,2013-08-19 07:40:00,
2013-08-19 03:45:00,66.0,64.8,30.11,SSW,202,2.9,3.6,96,0.00,SKC,,0.00,WeatherDisplay:10.37,2013-08-19 07:45:00,
2013-08-19 03:50:00,66.0,64.8,30.11,SSW,202,0.0,0.0,96,0.00,SKC,,0.00,WeatherDisplay:10.37,2013-08-19 07:50:00,
2013-08-19 03:55:00,65.8,64.6,30.11,SSW,202,3.9,4.6,96,0.00,SKC,,0.00,WeatherDisplay:10.37,2013-08-19 07:55:00,
2013-08-19 04:00:00,65.7,64.5,30.11,SSW,202,2.8,4.6,96,0.00,SKC,,0.00,WeatherDisplay:10.37,2013-08-19 08:00:00,
2013-08-19 04:05:00,65.7,64.5,30.11,SSW,202,0.0,2.3,96,0.00,SKC,,0.00,WeatherDisplay:10.37,2013-08-19 08:05:00,
2013-08-19 04:10:00,65.7,64.5,30.11,SSW,202,3.5,3.6,96,0.00,SKC,,0.00,WeatherDisplay:10.37,2013-08-19 08:10:00,
2013-08-19 04:15:00,65.7,64.5,30.11,SSW,202,4.3,4.6,96,0.00,SKC,,0.00,WeatherDisplay:10.37,2013-08-19 08:15:00,
2013-08-19 04:20:00,65.7,64.8,30.11,SSW,202,3.6,5.8,97,0.00,SKC,,0.00,WeatherDisplay:10.37,2013-08-19 08:20:00,
2013-08-19 04:25:00,65.7,64.8,30.11,SSW,202,3.2,4.6,97,0.00,SKC,,0.00,WeatherDisplay:10.37,2013-08-19 08:25:00,
2013-08-19 04:30:00,65.7,64.8,30.11,SSW,202,3.1,4.6,97,0.00,SKC,,0.00,WeatherDisplay:10.37,2013-08-19 08:30:00,
2013-08-19 04:35:00,65.7,64.8,30.11,SSW,202,0.0,0.0,97,0.00,SKC,,0.00,WeatherDisplay:10.37,2013-08-19 08:35:00,
2013-08-19 04:40:00,65.7,64.8,30.11,SSW,202,0.0,0.0,97,0.00,SKC,,0.00,WeatherDisplay:10.37,2013-08-19 08:40:00,
2013-08-19 04:45:00,65.7,64.8,30.11,SSW,202,0.0,0.0,97,0.00,SKC,,0.00,WeatherDisplay:10.37,2013-08-19 08:45:00,
2013-08-19 04:50:00,65.7,64.8,30.11,SSW,202,0.0,0.0,97,0.00,SKC,,0.00,WeatherDisplay:10.37,2013-08-19 08:50:00,
2013-08-19 04:55:00,65.7,64.8,30.11,SSW,202,0.0,0.0,97,0.00,SKC,,0.00,WeatherDisplay:10.37,2013-08-19 08:55:00,
2013-08-19 05:00:00,65.7,64.8,30.11,SSW,202,0.0,0.0,97,0.00,SKC,,0.00,WeatherDisplay:10.37,2013-08-19 09:00:00,
2013-08-19 05:05:00,65.7,64.8,30.11,SSW,202,0.0,0.0,97,0.00,SKC,,0.00,WeatherDisplay:10.37,2013-08-19 09:05:00,
2013-08-19 05:10:00,65.7,64.8,30.11,SSW,202,0.0,0.0,97,0.00,SKC,,0.00,WeatherDisplay:10.37,2013-08-19 09:10:00,
2013-08-19 05:15:00,65.7,64.8,30.11,SSW,202,0.0,0.0,97,0.00,SKC,,0.00,WeatherDisplay:10.37,2013-08-19 09:15:00,
2013-08-19 05:20:00,65.5,64.6,30.11,SSW,202,0.0,0.0,97,0.00,SKC,,0.00,WeatherDisplay:10.37,2013-08-19 09:20:00,
2013-08-19 05:25:00,65.5,64.6,30.11,SSW,202,0.0,0.0,97,0.00,SKC,,0.00,WeatherDisplay:10.37,2013-08-19 09:25:00,
2013-08-19 05:30:00,65.5,64.6,30.11,SSW,202,0.0,0.0,97,0.00,SKC,,0.00,WeatherDisplay:10.37,2013-08-19 09:30:00,
2013-08-19 05:35:00,65.1,64.2,30.11,SSW,202,0.0,0.0,97,0.00,SKC,,0.00,WeatherDisplay:10.37,2013-08-19 09:35:00,
2013-08-19 05:40:00,65.1,64.2,30.11,SSW,202,0.0,0.0,97,0.00,SKC,,0.00,WeatherDisplay:10.37,2013-08-19 09:40:00,
2013-08-19 05:45:00,64.9,64.0,30.11,SSW,202,0.0,0.0,97,0.00,SKC,,0.00,WeatherDisplay:10.37,2013-08-19 09:45:00,
2013-08-19 05:50:00,64.8,63.9,30.11,SSW,202,0.0,0.0,97,0.00,SKC,,0.00,WeatherDisplay:10.37,2013-08-19 09:50:00,
2013-08-19 05:55:00,64.6,64.0,30.10,SSW,202,0.0,0.0,98,0.00,SKC,,0.00,WeatherDisplay:10.37,2013-08-19 09:55:00,
2013-08-19 06:00:00,64.4,63.8,30.10,SSW,202,0.0,0.0,98,0.00,SKC,,0.00,WeatherDisplay:10.37,2013-08-19 10:00:00,
2013-08-19 06:05:00,64.4,63.8,30.11,SSW,202,0.0,0.0,98,0.00,SKC,,0.00,WeatherDisplay:10.37,2013-08-19 10:05:00,
2013-08-19 06:10:00,64.2,63.6,30.11,SSW,202,0.0,0.0,98,0.00,SKC,,0.00,WeatherDisplay:10.37,2013-08-19 10:10:00,
2013-08-19 06:15:00,64.0,63.7,30.11,SSW,202,0.0,0.0,99,0.00,SKC,,0.00,WeatherDisplay:10.37,2013-08-19 10:15:00,
2013-08-19 06:20:00,64.0,63.7,30.11,SSW,202,0.0,0.0,99,0.00,SKC,,0.00,WeatherDisplay:10.37,2013-08-19 10:20:00,
2013-08-19 06:25:00,64.0,63.7,30.11,SSW,202,0.0,0.0,99,0.00,SKC,,0.00,WeatherDisplay:10.37,2013-08-19 10:25:00,
2013-08-19 06:30:00,64.0,63.7,30.11,SSW,202,0.0,0.0,99,0.00,SKC,,0.00,WeatherDisplay:10.37,2013-08-19 10:30:00,
2013-08-19 06:35:00,64.0,63.7,30.11,SSW,202,0.0,0.0,99,0.00,-DZ,,0.00,WeatherDisplay:10.37,2013-08-19 10:35:00,
2013-08-19 06:40:00,64.0,63.7,30.11,SSW,202,0.0,0.0,99,0.00,-DZ,,0.00,WeatherDisplay:10.37,2013-08-19 10:40:00,
2013-08-19 06:45:00,64.4,64.1,30.11,SSW,202,0.0,0.0,99,0.00,-DZ,,0.00,WeatherDisplay:10.37,2013-08-19 10:45:00,
2013-08-19 06:50:00,64.6,64.3,30.11,SSW,202,0.0,0.0,99,0.00,-DZ,,0.00,WeatherDisplay:10.37,2013-08-19 10:50:00,
2013-08-19 06:55:00,64.6,64.3,30.11,SSW,202,0.0,0.0,99,0.00,-DZ,,0.00,WeatherDisplay:10.37,2013-08-19 10:55:00,
2013-08-19 07:00:00,64.6,64.3,30.11,SSW,202,0.0,0.0,99,0.00,-DZ,,0.00,WeatherDisplay:10.37,2013-08-19 11:00:00,
2013-08-19 07:05:00,64.6,64.3,30.12,SSW,202,0.0,0.0,99,0.00,-DZ,,0.00,WeatherDisplay:10.37,2013-08-19 11:05:00,
2013-08-19 07:10:00,64.8,64.5,30.12,SSW,202,0.0,0.0,99,0.06,-DZ,,0.07,WeatherDisplay:10.37,2013-08-19 11:10:00,
2013-08-19 07:15:00,64.8,64.8,30.12,SSW,202,0.0,0.0,100,0.12,-DZ,,0.13,WeatherDisplay:10.37,2013-08-19 11:15:00,
2013-08-19 07:20:00,64.8,64.8,30.11,SSW,202,0.0,0.0,100,0.15,-DZ,,0.16,WeatherDisplay:10.37,2013-08-19 11:20:00,
2013-08-19 07:25:00,64.8,64.8,30.11,SSW,202,0.0,0.0,100,0.18,-DZ,,0.18,WeatherDisplay:10.37,2013-08-19 11:25:00,
2013-08-19 07:30:00,64.8,64.8,30.11,SSW,202,0.0,0.0,100,0.19,-DZ,,0.19,WeatherDisplay:10.37,2013-08-19 11:30:00,
2013-08-19 07:35:00,64.8,64.8,30.11,SSW,202,0.0,0.0,100,0.20,RA,,0.20,WeatherDisplay:10.37,2013-08-19 11:35:00,
2013-08-19 07:40:00,64.8,64.8,30.12,SSW,202,0.0,0.0,100,0.20,RA,,0.20,WeatherDisplay:10.37,2013-08-19 11:40:00,
2013-08-19 07:45:00,64.8,64.8,30.12,SSW,202,0.0,0.0,100,0.23,RA,,0.23,WeatherDisplay:10.37,2013-08-19 11:45:00,
2013-08-19 07:50:00,64.8,64.8,30.12,SSW,202,0.0,0.0,100,0.24,RA,,0.24,WeatherDisplay:10.37,2013-08-19 11:50:00,
2013-08-19 07:55:00,64.8,64.8,30.12,SSW,202,1.0,2.3,100,0.29,RA,,0.29,WeatherDisplay:10.37,2013-08-19 11:55:00,
2013-08-19 08:00:00,64.8,64.8,30.12,SSW,202,0.0,0.0,100,0.33,RA,,0.35,WeatherDisplay:10.37,2013-08-19 12:00:00,
2013-08-19 08:05:00,64.8,64.8,30.12,SSW,202,0.0,0.0,100,0.37,-DZ,,0.37,WeatherDisplay:10.37,2013-08-19 12:05:00,
2013-08-19 08:10:00,64.8,64.8,30.12,SSW,202,0.0,0.0,100,0.31,-DZ,,0.37,WeatherDisplay:10.37,2013-08-19 12:10:00,
2013-08-19 08:15:00,64.8,64.8,30.12,SSW,202,0.0,0.0,100,0.25,-DZ,,0.37,WeatherDisplay:10.37,2013-08-19 12:15:00,
2013-08-19 08:20:00,64.8,64.8,30.12,SSW,202,0.0,2.3,100,0.22,-DZ,,0.37,WeatherDisplay:10.37,2013-08-19 12:20:00,
2013-08-19 08:25:00,64.8,64.8,30.12,SSW,202,0.0,0.0,100,0.19,-DZ,,0.37,WeatherDisplay:10.37,2013-08-19 12:25:00,
2013-08-19 08:30:00,64.8,64.8,30.11,SSW,202,1.0,2.7,100,0.19,-DZ,,0.38,WeatherDisplay:10.37,2013-08-19 12:30:00,
2013-08-19 08:35:00,64.8,64.8,30.11,SSW,202,0.7,2.7,100,0.19,-RA,,0.39,WeatherDisplay:10.37,2013-08-19 12:35:00,
2013-08-19 08:40:00,64.8,64.8,30.12,SSW,202,0.4,3.5,100,0.19,-RA,,0.39,WeatherDisplay:10.37,2013-08-19 12:40:00,
2013-08-19 08:45:00,64.8,64.8,30.12,SSW,202,3.0,3.6,100,0.17,-RA,,0.40,WeatherDisplay:10.37,2013-08-19 12:45:00,
2013-08-19 08:50:00,64.8,64.8,30.12,SSW,202,2.7,2.7,100,0.16,-RA,,0.41,WeatherDisplay:10.37,2013-08-19 12:50:00,
2013-08-19 08:55:00,64.9,64.9,30.12,SSW,202,0.0,0.0,100,0.12,-RA,,0.41,WeatherDisplay:10.37,2013-08-19 12:55:00,
2013-08-19 09:00:00,64.9,64.9,30.12,SSW,202,0.0,0.0,100,0.09,-RA,,0.42,WeatherDisplay:10.37,2013-08-19 13:00:00,
2013-08-19 09:05:00,64.9,64.9,30.12,SSW,202,0.0,0.0,100,0.05,-RA,,0.42,WeatherDisplay:10.37,2013-08-19 13:05:00,
2013-08-19 09:10:00,65.1,65.1,30.12,SSW,202,0.0,0.0,100,0.05,-RA,,0.42,WeatherDisplay:10.37,2013-08-19 13:10:00,
2013-08-19 09:15:00,65.3,65.3,30.12,SSW,202,1.5,3.6,100,0.05,-RA,,0.42,WeatherDisplay:10.37,2013-08-19 13:15:00,
2013-08-19 09:20:00,65.5,65.5,30.12,SSW,202,0.0,0.0,100,0.05,-RA,,0.42,WeatherDisplay:10.37,2013-08-19 13:20:00,
2013-08-19 09:25:00,65.7,65.7,30.12,SSW,202,2.3,2.7,100,0.05,-RA,,0.42,WeatherDisplay:10.37,2013-08-19 13:25:00,
2013-08-19 09:30:00,66.0,66.0,30.12,SSW,202,0.0,0.0,100,0.04,-RA,,0.42,WeatherDisplay:10.37,2013-08-19 13:30:00,
2013-08-19 09:35:00,66.4,66.4,30.12,SSW,202,0.0,2.3,100,0.03,-RA,,0.42,WeatherDisplay:10.37,2013-08-19 13:35:00,
2013-08-19 09:40:00,66.6,66.6,30.12,SSW,202,0.0,0.0,100,0.03,-RA,,0.42,WeatherDisplay:10.37,2013-08-19 13:40:00,
2013-08-19 09:45:00,66.7,66.7,30.12,SSW,202,0.0,0.0,100,0.02,-RA,,0.42,WeatherDisplay:10.37,2013-08-19 13:45:00,
2013-08-19 09:50:00,66.9,66.9,30.12,SSW,202,0.0,0.0,100,0.02,-RA,,0.42,WeatherDisplay:10.37,2013-08-19 13:50:00,
2013-08-19 09:55:00,67.1,67.1,30.12,SSW,202,0.0,0.0,100,0.01,-RA,,0.42,WeatherDisplay:10.37,2013-08-19 13:55:00,
2013-08-19 10:00:00,67.1,67.1,30.12,SSW,202,1.7,2.7,100,0.00,-RA,,0.42,WeatherDisplay:10.37,2013-08-19 14:00:00,
2013-08-19 10:05:00,67.1,66.8,30.11,SSW,202,4.1,5.8,99,0.00,OVC,,0.42,WeatherDisplay:10.37,2013-08-19 14:05:00,
2013-08-19 10:10:00,67.3,66.7,30.11,SSW,202,3.2,3.6,98,0.00,OVC,,0.42,WeatherDisplay:10.37,2013-08-19 14:10:00,
2013-08-19 10:15:00,67.6,67.0,30.11,SSW,202,1.6,3.6,98,0.00,OVC,,0.42,WeatherDisplay:10.37,2013-08-19 14:15:00,
2013-08-19 10:20:00,67.8,66.9,30.12,SSW,202,3.4,5.3,97,0.00,OVC,,0.42,WeatherDisplay:10.37,2013-08-19 14:20:00,
2013-08-19 10:25:00,67.8,66.9,30.12,SSW,202,3.2,4.6,97,0.00,OVC,,0.42,WeatherDisplay:10.37,2013-08-19 14:25:00,
2013-08-19 10:30:00,67.8,66.6,30.12,SSW,202,1.1,2.7,96,0.00,OVC,,0.42,WeatherDisplay:10.37,2013-08-19 14:30:00,
2013-08-19 10:35:00,68.4,67.2,30.12,SSW,202,0.4,3.5,96,0.00,OVC,,0.42,WeatherDisplay:10.37,2013-08-19 14:35:00,
2013-08-19 10:40:00,69.1,67.6,30.12,SSW,202,0.0,2.3,95,0.00,OVC,,0.42,WeatherDisplay:10.37,2013-08-19 14:40:00,
2013-08-19 10:45:00,68.9,67.1,30.12,SSW,202,0.0,0.0,94,0.00,OVC,,0.42,WeatherDisplay:10.37,2013-08-19 14:45:00,
2013-08-19 10:50:00,69.6,67.8,30.12,SSW,202,1.1,3.6,94,0.00,OVC,,0.42,WeatherDisplay:10.37,2013-08-19 14:50:00,
2013-08-19 10:55:00,70.7,67.6,30.11,SSW,202,1.6,4.6,90,0.00,OVC,,0.42,WeatherDisplay:10.37,2013-08-19 14:55:00,
2013-08-19 11:00:00,71.2,68.4,30.11,SSW,202,3.2,4.6,91,0.00,OVC,,0.42,WeatherDisplay:10.37,2013-08-19 15:00:00,
2013-08-19 11:05:00,71.2,67.5,30.12,SSW,202,2.8,5.8,88,0.00,OVC,,0.42,WeatherDisplay:10.37,2013-08-19 15:05:00,
2013-08-19 11:10:00,71.4,67.7,30.12,SSW,202,1.0,4.6,88,0.00,OVC,,0.42,WeatherDisplay:10.37,2013-08-19 15:10:00,
2013-08-19 11:15:00,71.4,67.3,30.12,SSW,202,0.0,2.3,87,0.00,OVC,,0.42,WeatherDisplay:10.37,2013-08-19 15:15:00,
2013-08-19 11:20:00,71.4,67.7,30.12,SSW,202,1.5,3.5,88,0.00,OVC,,0.42,WeatherDisplay:10.37,2013-08-19 15:20:00,
2013-08-19 11:25:00,71.2,67.5,30.12,SSW,202,1.0,3.5,88,0.00,OVC,,0.42,WeatherDisplay:10.37,2013-08-19 15:25:00,
2013-08-19 11:30:00,70.7,67.3,30.12,SSW,202,3.8,5.3,89,0.00,OVC,,0.42,WeatherDisplay:10.37,2013-08-19 15:30:00,
2013-08-19 11:35:00,70.7,67.3,30.12,SSW,202,1.5,3.6,89,0.00,OVC,,0.42,WeatherDisplay:10.37,2013-08-19 15:35:00,
2013-08-19 11:40:00,70.9,67.2,30.12,SSW,202,3.6,4.6,88,0.00,OVC,,0.42,WeatherDisplay:10.37,2013-08-19 15:40:00,
2013-08-19 11:45:00,70.9,66.8,30.12,SSW,202,5.1,6.1,87,0.00,OVC,,0.42,WeatherDisplay:10.37,2013-08-19 15:45:00,
2013-08-19 11:50:00,71.2,67.5,30.12,SSW,202,0.0,2.3,88,0.00,OVC,,0.42,WeatherDisplay:10.37,2013-08-19 15:50:00,
2013-08-19 11:55:00,71.4,67.0,30.12,SSW,202,4.9,5.3,86,0.00,OVC,,0.42,WeatherDisplay:10.37,2013-08-19 15:55:00,
2013-08-19 12:00:00,71.8,67.0,30.12,SSW,202,2.7,4.6,85,0.00,OVC,,0.42,WeatherDisplay:10.37,2013-08-19 16:00:00,
2013-08-19 12:05:00,73.0,67.5,30.12,SSW,202,2.6,3.5,83,0.00,OVC,,0.42,WeatherDisplay:10.37,2013-08-19 16:05:00,
2013-08-19 12:11:00,73.8,68.0,30.12,SSW,202,0.0,4.6,82,0.00,OVC,,0.42,WeatherDisplay:10.37,2013-08-19 16:11:00,
2013-08-19 12:16:00,74.5,67.9,30.11,SSW,202,3.7,7.0,80,0.00,OVC,,0.42,WeatherDisplay:10.37,2013-08-19 16:16:00,
2013-08-19 12:21:00,74.5,68.3,30.11,SSW,202,0.4,2.3,81,0.00,OVC,,0.42,WeatherDisplay:10.37,2013-08-19 16:21:00,
2013-08-19 12:26:00,74.7,67.8,30.11,SSW,202,0.1,2.3,79,0.00,OVC,,0.42,WeatherDisplay:10.37,2013-08-19 16:26:00,
2013-08-19 12:32:00,73.8,67.6,30.12,SSW,202,3.3,5.8,81,0.00,OVC,,0.42,WeatherDisplay:10.37,2013-08-19 16:32:00,
2013-08-19 12:37:00,73.9,67.7,30.12,SSW,202,2.9,4.4,81,0.00,OVC,,0.42,WeatherDisplay:10.37,2013-08-19 16:37:00,
2013-08-19 12:42:00,73.9,67.7,30.12,SSW,202,2.5,5.8,81,0.00,OVC,,0.42,WeatherDisplay:10.37,2013-08-19 16:42:00,
2013-08-19 12:47:00,73.8,67.2,30.12,SSW,202,2.6,3.5,80,0.00,OVC,,0.42,WeatherDisplay:10.37,2013-08-19 16:47:00,
2013-08-19 12:52:00,73.9,67.3,30.11,SSW,202,0.0,0.0,80,0.00,OVC,,0.42,WeatherDisplay:10.37,2013-08-19 16:52:00,
2013-08-19 12:57:00,73.8,68.0,30.11,SSW,202,0.8,2.7,82,0.00,OVC,,0.42,WeatherDisplay:10.37,2013-08-19 16:57:00,
2013-08-19 13:02:00,71.6,67.2,30.11,SSW,202,4.6,5.8,86,0.00,OVC,,0.42,WeatherDisplay:10.37,2013-08-19 17:02:00,
2013-08-19 13:07:00,72.1,66.3,30.11,SSW,202,2.0,3.5,82,0.00,OVC,,0.42,WeatherDisplay:10.37,2013-08-19 17:07:00,
2013-08-19 13:12:00,72.1,66.6,30.11,SSW,202,0.0,0.0,83,0.00,OVC,,0.42,WeatherDisplay:10.37,2013-08-19 17:12:00,
2013-08-19 13:17:00,72.1,67.3,30.11,SSW,202,0.5,4.6,85,0.00,OVC,,0.42,WeatherDisplay:10.37,2013-08-19 17:17:00,
2013-08-19 13:22:00,72.7,66.5,30.11,SSW,202,2.9,3.6,81,0.00,OVC,,0.42,WeatherDisplay:10.37,2013-08-19 17:22:00,
2013-08-19 13:27:00,72.7,66.9,30.11,SSW,202,3.5,4.6,82,0.00,OVC,,0.42,WeatherDisplay:10.37,2013-08-19 17:27:00,
2013-08-19 13:32:00,72.3,67.2,30.11,SSW,202,0.0,2.3,84,0.00,OVC,,0.42,WeatherDisplay:10.37,2013-08-19 17:32:00,
2013-08-19 13:37:00,73.0,66.8,30.11,SSW,202,0.0,0.0,81,0.00,OVC,,0.42,WeatherDisplay:10.37,2013-08-19 17:37:00,
2013-08-19 13:42:00,73.6,67.4,30.10,SSW,202,4.3,5.8,81,0.00,OVC,,0.42,WeatherDisplay:10.37,2013-08-19 17:42:00,
2013-08-19 13:47:00,73.6,67.0,30.10,SSW,202,1.7,4.6,80,0.00,OVC,,0.42,WeatherDisplay:10.37,2013-08-19 17:47:00,
2013-08-19 13:52:00,73.0,66.8,30.10,SSW,202,2.2,4.6,81,0.00,OVC,,0.42,WeatherDisplay:10.37,2013-08-19 17:52:00,
2013-08-19 13:57:00,73.4,66.9,30.10,SSW,202,2.5,3.5,80,0.00,OVC,,0.42,WeatherDisplay:10.37,2013-08-19 17:57:00,
2013-08-19 14:02:00,73.4,67.2,30.10,SSW,202,2.7,3.6,81,0.00,OVC,,0.42,WeatherDisplay:10.37,2013-08-19 18:02:00,
2013-08-19 14:07:00,73.0,67.2,30.10,SSW,202,2.6,3.6,82,0.00,OVC,,0.42,WeatherDisplay:10.37,2013-08-19 18:07:00,
2013-08-19 14:12:00,73.4,67.2,30.10,SSW,202,3.4,4.6,81,0.00,OVC,,0.42,WeatherDisplay:10.37,2013-08-19 18:12:00,
2013-08-19 14:17:00,73.8,67.6,30.10,SSW,202,3.5,3.6,81,0.00,OVC,,0.42,WeatherDisplay:10.37,2013-08-19 18:17:00,
2013-08-19 14:22:00,74.3,67.7,30.10,SSW,202,2.4,3.6,80,0.00,OVC,,0.42,WeatherDisplay:10.37,2013-08-19 18:22:00,
2013-08-19 14:27:00,74.5,67.9,30.10,SSW,202,1.0,5.8,80,0.00,OVC,,0.42,WeatherDisplay:10.37,2013-08-19 18:27:00,
2013-08-19 14:32:00,74.7,67.8,30.10,SSW,202,5.4,6.1,79,0.00,BKN,,0.42,WeatherDisplay:10.37,2013-08-19 18:32:00,
2013-08-19 14:37:00,73.9,67.7,30.10,SSW,202,0.0,2.7,81,0.00,BKN,,0.42,WeatherDisplay:10.37,2013-08-19 18:37:00,
2013-08-19 14:42:00,74.8,68.2,30.10,SSW,202,1.5,3.6,80,0.00,BKN,,0.42,WeatherDisplay:10.37,2013-08-19 18:42:00,
2013-08-19 14:47:00,75.0,68.8,30.10,SSW,202,1.6,4.6,81,0.00,BKN,,0.42,WeatherDisplay:10.37,2013-08-19 18:47:00,
2013-08-19 14:52:00,75.6,69.0,30.09,SSW,202,3.3,5.8,80,0.00,BKN,,0.42,WeatherDisplay:10.37,2013-08-19 18:52:00,
2013-08-19 14:57:00,75.7,68.4,30.09,SSW,202,3.6,5.3,78,0.00,BKN,,0.42,WeatherDisplay:10.37,2013-08-19 18:57:00,
2013-08-19 15:02:00,76.6,68.5,30.09,SSW,202,4.5,5.8,76,0.00,BKN,,0.42,WeatherDisplay:10.37,2013-08-19 19:02:00,
2013-08-19 15:07:00,76.3,68.6,30.09,NNE,22,4.3,6.1,77,0.00,BKN,,0.42,WeatherDisplay:10.37,2013-08-19 19:07:00,
2013-08-19 15:12:00,76.3,68.2,30.09,NNE,22,3.4,5.3,76,0.00,BKN,,0.42,WeatherDisplay:10.37,2013-08-19 19:12:00,
2013-08-19 15:17:00,75.6,67.9,30.09,NNE,22,5.7,7.0,77,0.00,BKN,,0.42,WeatherDisplay:10.37,2013-08-19 19:17:00,
2013-08-19 15:22:00,76.1,68.7,30.09,NNE,22,2.8,5.8,78,0.00,BKN,,0.42,WeatherDisplay:10.37,2013-08-19 19:22:00,
2013-08-19 15:27:00,76.3,68.6,30.09,NNE,22,0.3,2.7,77,0.00,BKN,,0.42,WeatherDisplay:10.37,2013-08-19 19:27:00,
2013-08-19 15:32:00,78.8,68.6,30.09,NNE,22,3.6,4.4,71,0.00,BKN,,0.42,WeatherDisplay:10.37,2013-08-19 19:32:00,
2013-08-19 15:37:00,80.2,69.5,30.09,NNE,22,3.4,5.3,70,0.00,BKN,,0.42,WeatherDisplay:10.37,2013-08-19 19:37:00,
2013-08-19 15:42:00,80.2,69.5,30.09,NNE,22,2.5,3.5,70,0.00,BKN,,0.42,WeatherDisplay:10.37,2013-08-19 19:42:00,
2013-08-19 15:47:00,76.6,68.8,30.09,NNE,22,3.0,3.6,77,0.00,BKN,,0.42,WeatherDisplay:10.37,2013-08-19 19:47:00,
2013-08-19 15:52:00,77.9,68.5,30.09,NNE,22,4.5,5.8,73,0.00,BKN,,0.42,WeatherDisplay:10.37,2013-08-19 19:52:00,
2013-08-19 15:57:00,78.3,68.5,30.09,NNE,22,2.9,5.8,72,0.00,BKN,,0.42,WeatherDisplay:10.37,2013-08-19 19:57:00,
2013-08-19 16:02:00,76.5,68.0,30.09,NNE,22,3.5,4.6,75,0.00,BKN,,0.42,WeatherDisplay:10.37,2013-08-19 20:02:00,
2013-08-19 16:07:00,75.9,67.8,30.08,NNE,22,2.4,3.6,76,0.00,BKN,,0.42,WeatherDisplay:10.37,2013-08-19 20:07:00,
2013-08-19 16:12:00,77.4,68.1,30.08,NNE,22,4.0,4.6,73,0.00,BKN,,0.42,WeatherDisplay:10.37,2013-08-19 20:12:00,
2013-08-19 16:17:00,77.7,68.4,30.08,NNE,22,3.0,5.8,73,0.00,BKN,,0.42,WeatherDisplay:10.37,2013-08-19 20:17:00,
2013-08-19 16:22:00,77.4,68.5,30.08,NNE,22,1.2,5.8,74,0.00,BKN,,0.42,WeatherDisplay:10.37,2013-08-19 20:22:00,
2013-08-19 16:28:00,80.1,69.4,30.08,NNE,22,1.5,4.4,70,0.00,BKN,,0.42,WeatherDisplay:10.37,2013-08-19 20:28:00,
2013-08-19 16:33:00,80.6,69.5,30.08,NNE,22,1.1,3.5,69,0.00,BKN,,0.42,WeatherDisplay:10.37,2013-08-19 20:33:00,
2013-08-19 16:38:00,80.2,69.9,30.08,NNE,22,0.0,2.3,71,0.00,BKN,,0.42,WeatherDisplay:10.37,2013-08-19 20:38:00,
2013-08-19 16:43:00,76.8,67.9,30.08,NNE,22,3.3,4.4,74,0.00,BKN,,0.42,WeatherDisplay:10.37,2013-08-19 20:43:00,
2013-08-19 16:48:00,76.5,67.6,30.08,NNE,22,3.9,4.6,74,0.00,BKN,,0.42,WeatherDisplay:10.37,2013-08-19 20:48:00,
2013-08-19 16:53:00,78.1,68.7,30.08,NNE,22,2.7,4.6,73,0.00,BKN,,0.42,WeatherDisplay:10.37,2013-08-19 20:53:00,
2013-08-19 16:58:00,78.4,67.4,30.08,NNE,22,5.2,7.0,69,0.00,BKN,,0.42,WeatherDisplay:10.37,2013-08-19 20:58:00,
2013-08-19 17:03:00,78.3,67.7,30.08,NNE,22,2.7,5.8,70,0.00,BKN,,0.42,WeatherDisplay:10.37,2013-08-19 21:03:00,
2013-08-19 17:09:00,79.5,67.6,30.07,NNE,22,3.1,4.6,67,0.00,BKN,,0.42,WeatherDisplay:10.37,2013-08-19 21:09:00,
2013-08-19 17:14:00,85.1,68.7,30.07,NNE,22,4.6,5.8,58,0.00,BKN,,0.42,WeatherDisplay:10.37,2013-08-19 21:14:00,
2013-08-19 17:19:00,86.0,70.0,30.07,NNE,22,3.7,5.8,59,0.00,BKN,,0.42,WeatherDisplay:10.37,2013-08-19 21:19:00,
2013-08-19 17:24:00,87.6,69.4,30.07,NNE,22,2.9,3.6,55,0.00,BKN,,0.42,WeatherDisplay:10.37,2013-08-19 21:24:00,
2013-08-19 17:29:00,86.9,68.8,30.07,NNE,22,3.0,4.6,55,0.00,BKN,,0.42,WeatherDisplay:10.37,2013-08-19 21:29:00,
2013-08-19 17:34:00,85.8,68.3,30.07,NNE,22,3.2,5.8,56,0.00,BKN,,0.42,WeatherDisplay:10.37,2013-08-19 21:34:00,
2013-08-19 17:40:00,85.1,68.7,30.07,NNE,22,3.0,6.0,58,0.00,BKN,BKN,0.42,WeatherDisplay:10.37,2013-08-19 21:40:00,
2013-08-19 17:45:00,82.4,68.1,30.07,NNE,22,3.1,4.6,62,0.00,BKN,,0.42,WeatherDisplay:10.37,2013-08-19 21:45:00,
2013-08-19 17:50:00,87.8,69.1,30.07,NNE,22,2.1,2.7,54,0.00,BKN,,0.42,WeatherDisplay:10.37,2013-08-19 21:50:00,
2013-08-19 17:55:00,86.5,68.4,30.07,NNE,22,3.3,4.6,55,0.00,BKN,,0.42,WeatherDisplay:10.37,2013-08-19 21:55:00,
2013-08-19 18:00:00,85.3,68.3,30.07,NNE,22,0.0,3.5,57,0.00,BKN,,0.42,WeatherDisplay:10.37,2013-08-19 22:00:00,
2013-08-19 18:05:00,84.6,68.7,30.07,NNE,22,3.7,4.6,59,0.00,BKN,,0.42,WeatherDisplay:10.37,2013-08-19 22:05:00,
2013-08-19 18:10:00,82.8,67.0,30.07,NNE,22,1.8,4.6,59,0.00,BKN,,0.42,WeatherDisplay:10.37,2013-08-19 22:10:00,
2013-08-19 18:15:00,82.0,67.7,30.07,NNE,22,3.3,3.6,62,0.00,BKN,,0.42,WeatherDisplay:10.37,2013-08-19 22:15:00,
2013-08-19 18:20:00,81.0,67.2,30.07,NNE,22,1.2,4.6,63,0.00,BKN,,0.42,WeatherDisplay:10.37,2013-08-19 22:20:00,
2013-08-19 18:25:00,80.4,67.1,30.07,NNE,22,0.0,0.0,64,0.00,BKN,,0.42,WeatherDisplay:10.37,2013-08-19 22:25:00,
2013-08-19 18:30:00,80.1,67.7,30.07,NNE,22,2.3,2.7,66,0.00,BKN,,0.42,WeatherDisplay:10.37,2013-08-19 22:30:00,
2013-08-19 18:35:00,79.7,66.9,30.07,NNE,22,2.5,2.7,65,0.00,BKN,,0.42,WeatherDisplay:10.37,2013-08-19 22:35:00,
2013-08-19 18:40:00,79.0,67.1,30.06,NNE,22,1.3,2.3,67,0.00,BKN,,0.42,WeatherDisplay:10.37,2013-08-19 22:40:00,
2013-08-19 18:45:00,78.8,67.3,30.06,NNE,22,0.0,0.0,68,0.00,BKN,,0.42,WeatherDisplay:10.37,2013-08-19 22:45:00,
2013-08-19 18:50:00,77.9,68.1,30.06,NNE,22,0.0,0.0,72,0.00,BKN,,0.42,WeatherDisplay:10.37,2013-08-19 22:50:00,
2013-08-19 18:55:00,77.5,67.8,30.06,NNE,22,0.0,0.0,72,0.00,BKN,,0.42,WeatherDisplay:10.37,2013-08-19 22:55:00,
2013-08-19 19:00:00,77.2,69.0,30.06,NNE,22,0.0,0.0,76,0.00,BKN,,0.42,WeatherDisplay:10.37,2013-08-19 23:00:00,
2013-08-19 19:05:00,76.6,70.0,30.06,NNE,22,1.0,2.7,80,0.00,FEW,,0.42,WeatherDisplay:10.37,2013-08-19 23:05:00,
2013-08-19 19:10:00,76.3,68.2,30.06,NNE,22,0.3,1.9,76,0.00,FEW,,0.42,WeatherDisplay:10.37,2013-08-19 23:10:00,
2013-08-19 19:15:00,75.6,68.6,30.06,NNE,22,0.3,2.3,79,0.00,FEW,,0.42,WeatherDisplay:10.37,2013-08-19 23:15:00,
2013-08-19 19:20:00,75.0,69.1,30.07,NNE,22,0.5,2.3,82,0.00,FEW,,0.42,WeatherDisplay:10.37,2013-08-19 23:20:00,
2013-08-19 19:25:00,74.5,68.6,30.07,NNE,22,0.0,0.0,82,0.00,FEW,,0.42,WeatherDisplay:10.37,2013-08-19 23:25:00,
2013-08-19 19:30:00,73.8,68.7,30.07,NNE,22,0.0,0.0,84,0.00,FEW,,0.42,WeatherDisplay:10.37,2013-08-19 23:30:00,
2013-08-19 19:35:00,73.4,69.0,30.07,NNE,22,0.0,0.0,86,0.00,FEW,,0.42,WeatherDisplay:10.37,2013-08-19 23:35:00,
2013-08-19 19:40:00,72.5,68.1,30.07,NNE,22,0.0,0.0,86,0.00,FEW,,0.42,WeatherDisplay:10.37,2013-08-19 23:40:00,
2013-08-19 19:45:00,71.8,67.7,30.07,NNE,22,0.0,0.0,87,0.00,FEW,,0.42,WeatherDisplay:10.37,2013-08-19 23:45:00,
2013-08-19 19:50:00,71.1,67.4,30.07,NNE,22,0.0,0.0,88,0.00,FEW,,0.42,WeatherDisplay:10.37,2013-08-19 23:50:00,
2013-08-19 19:55:00,70.7,67.6,30.07,NNE,22,0.0,0.0,90,0.00,FEW,,0.42,WeatherDisplay:10.37,2013-08-19 23:55:00,
2013-08-19 20:00:00,70.3,67.2,30.07,NNE,22,0.0,0.0,90,0.00,FEW,,0.42,WeatherDisplay:10.37,2013-08-20 00:00:00,
2013-08-19 20:05:00,69.8,67.1,30.07,NNE,22,0.0,0.0,91,0.00,FEW,,0.42,WeatherDisplay:10.37,2013-08-20 00:05:00,
2013-08-19 20:10:00,69.6,67.2,30.07,NNE,22,0.0,0.0,92,0.00,FEW,,0.42,WeatherDisplay:10.37,2013-08-20 00:10:00,
2013-08-19 20:15:00,69.3,67.2,30.07,NNE,22,0.0,0.0,93,0.00,FEW,,0.42,WeatherDisplay:10.37,2013-08-20 00:15:00,
2013-08-19 20:20:00,69.1,67.0,30.07,NNE,22,0.0,0.0,93,0.00,FEW,,0.42,WeatherDisplay:10.37,2013-08-20 00:20:00,
2013-08-19 20:25:00,68.7,66.6,30.07,NNE,22,0.0,0.0,93,0.00,FEW,,0.42,WeatherDisplay:10.37,2013-08-20 00:25:00,
2013-08-19 20:30:00,68.7,66.9,30.08,NNE,22,0.0,0.0,94,0.00,FEW,,0.42,WeatherDisplay:10.37,2013-08-20 00:30:00,
2013-08-19 20:35:00,68.4,66.6,30.08,NNE,22,0.0,0.0,94,0.00,FEW,,0.42,WeatherDisplay:10.37,2013-08-20 00:35:00,
2013-08-19 20:40:00,68.2,66.4,30.08,NNE,22,0.0,0.0,94,0.00,FEW,,0.42,WeatherDisplay:10.37,2013-08-20 00:40:00,
2013-08-19 20:45:00,67.8,66.0,30.08,NNE,22,0.0,0.0,94,0.00,FEW,,0.42,WeatherDisplay:10.37,2013-08-20 00:45:00,
2013-08-19 20:50:00,67.8,66.0,30.08,NNE,22,0.0,0.0,94,0.00,FEW,,0.42,WeatherDisplay:10.37,2013-08-20 00:50:00,
2013-08-19 20:55:00,67.6,65.8,30.08,NNE,22,0.0,0.0,94,0.00,FEW,,0.42,WeatherDisplay:10.37,2013-08-20 00:55:00,
2013-08-19 21:00:00,67.5,65.7,30.08,NNE,22,0.0,0.0,94,0.00,FEW,,0.42,WeatherDisplay:10.37,2013-08-20 01:00:00,
2013-08-19 21:05:00,67.1,65.6,30.08,NNE,22,0.0,0.0,95,0.00,SCT,,0.42,WeatherDisplay:10.37,2013-08-20 01:05:00,
2013-08-19 21:10:00,66.9,65.4,30.08,NNE,22,0.0,0.0,95,0.00,SCT,,0.42,WeatherDisplay:10.37,2013-08-20 01:10:00,
2013-08-19 21:15:00,66.7,65.5,30.08,NNE,22,0.0,0.0,96,0.00,SCT,,0.42,WeatherDisplay:10.37,2013-08-20 01:15:00,
2013-08-19 21:20:00,66.4,65.2,30.09,NNE,22,0.0,0.0,96,0.00,SCT,,0.42,WeatherDisplay:10.37,2013-08-20 01:20:00,
2013-08-19 21:25:00,66.2,65.0,30.09,NNE,22,0.0,0.0,96,0.00,SCT,,0.42,WeatherDisplay:10.37,2013-08-20 01:25:00,
2013-08-19 21:30:00,65.8,65.2,30.10,NNE,22,0.0,0.0,98,0.00,SCT,,0.42,WeatherDisplay:10.37,2013-08-20 01:30:00,
2013-08-19 21:35:00,65.8,65.2,30.10,NNE,22,0.0,0.0,98,0.00,SCT,,0.42,WeatherDisplay:10.37,2013-08-20 01:35:00,
2013-08-19 21:40:00,65.7,65.1,30.10,NNE,22,0.0,0.0,98,0.00,SCT,,0.42,WeatherDisplay:10.37,2013-08-20 01:40:00,
2013-08-19 21:45:00,65.5,64.9,30.10,NNE,22,0.0,0.0,98,0.00,SCT,,0.42,WeatherDisplay:10.37,2013-08-20 01:45:00,
2013-08-19 21:50:00,65.3,64.7,30.10,NNE,22,0.0,0.0,98,0.00,SCT,,0.42,WeatherDisplay:10.37,2013-08-20 01:50:00,
2013-08-19 21:55:00,65.3,64.7,30.11,NNE,22,0.0,0.0,98,0.00,SCT,,0.42,WeatherDisplay:10.37,2013-08-20 01:55:00,
2013-08-19 22:01:00,65.1,64.5,30.11,NNE,22,0.0,0.0,98,0.00,SCT,,0.42,WeatherDisplay:10.37,2013-08-20 02:01:00,
2013-08-19 22:06:00,64.9,64.3,30.10,NNE,22,0.0,0.0,98,0.00,SCT,,0.42,WeatherDisplay:10.37,2013-08-20 02:06:00,
2013-08-19 22:11:00,64.8,64.2,30.10,NNE,22,0.0,0.0,98,0.00,SCT,,0.42,WeatherDisplay:10.37,2013-08-20 02:11:00,
2013-08-19 22:16:00,64.6,64.0,30.11,NNE,22,0.0,0.0,98,0.00,SCT,,0.42,WeatherDisplay:10.37,2013-08-20 02:16:00,
2013-08-19 22:21:00,64.4,64.1,30.11,NNE,22,0.0,0.0,99,0.00,SCT,,0.42,WeatherDisplay:10.37,2013-08-20 02:21:00,
2013-08-19 22:26:00,64.0,63.7,30.11,NNE,22,0.0,0.0,99,0.00,SCT,,0.42,WeatherDisplay:10.37,2013-08-20 02:26:00,
2013-08-19 22:31:00,63.9,63.6,30.11,NNE,22,0.0,0.0,99,0.00,SCT,,0.42,WeatherDisplay:10.37,2013-08-20 02:31:00,
2013-08-19 22:36:00,63.9,63.6,30.11,NNE,22,0.0,0.0,99,0.00,SCT,,0.42,WeatherDisplay:10.37,2013-08-20 02:36:00,
2013-08-19 22:41:00,63.7,63.4,30.11,NNE,22,0.0,0.0,99,0.00,SCT,,0.42,WeatherDisplay:10.37,2013-08-20 02:41:00,
2013-08-19 22:46:00,63.5,63.2,30.11,NNE,22,0.0,0.0,99,0.00,SCT,,0.42,WeatherDisplay:10.37,2013-08-20 02:46:00,
2013-08-19 22:51:00,63.3,63.0,30.11,NNE,22,0.0,0.0,99,0.00,SCT,,0.42,WeatherDisplay:10.37,2013-08-20 02:51:00,
2013-08-19 22:56:00,63.3,63.0,30.11,NNE,22,0.0,0.0,99,0.00,SCT,,0.42,WeatherDisplay:10.37,2013-08-20 02:56:00,
2013-08-19 23:02:00,63.3,63.3,30.11,NNE,22,0.0,0.0,100,0.00,SCT,,0.42,WeatherDisplay:10.37,2013-08-20 03:02:00,
2013-08-19 23:07:00,63.0,63.0,30.11,NNE,22,0.0,0.0,100,0.00,SCT,,0.42,WeatherDisplay:10.37,2013-08-20 03:07:00,
2013-08-19 23:12:00,63.0,63.0,30.11,NNE,22,0.0,0.0,100,0.00,SCT,,0.42,WeatherDisplay:10.37,2013-08-20 03:12:00,
2013-08-19 23:17:00,62.8,62.8,30.11,NNE,22,0.0,0.0,100,0.00,SCT,,0.42,WeatherDisplay:10.37,2013-08-20 03:17:00,
2013-08-19 23:22:00,62.6,62.6,30.11,NNE,22,0.0,0.0,100,0.00,SCT,,0.42,WeatherDisplay:10.37,2013-08-20 03:22:00,
2013-08-19 23:27:00,62.6,62.6,30.11,NNE,22,0.0,0.0,100,0.00,SCT,,0.42,WeatherDisplay:10.37,2013-08-20 03:27:00,
2013-08-19 23:32:00,62.4,62.4,30.11,NNE,22,0.0,0.0,100,0.00,SCT,,0.42,WeatherDisplay:10.37,2013-08-20 03:32:00,
2013-08-19 23:37:00,62.2,62.2,30.11,NNE,22,0.0,0.0,100,0.00,SCT,,0.42,WeatherDisplay:10.37,2013-08-20 03:37:00,
2013-08-19 23:42:00,62.1,62.1,30.11,NNE,22,0.0,0.0,100,0.00,SCT,,0.42,WeatherDisplay:10.37,2013-08-20 03:42:00,
2013-08-19 23:47:00,62.1,62.1,30.11,NNE,22,0.0,0.0,100,0.00,SCT,,0.42,WeatherDisplay:10.37,2013-08-20 03:47:00,
2013-08-19 23:52:00,62.1,62.1,30.11,NNE,22,0.0,0.0,100,0.00,SCT,,0.42,WeatherDisplay:10.37,2013-08-20 03:52:00,
2013-08-19 23:57:00,61.7,61.7,30.11,NNE,22,0.0,0.0,100,0.00,SCT,,0.42,WeatherDisplay:10.37,2013-08-20 03:57:00,